Date,TemperatureHighF,TemperatureAvgF,TemperatureLowF,DewpointHighF,DewpointAvgF,DewpointLowF,HumidityHigh,HumidityAvg,HumidityLow,PressureMaxIn,PressureMinIn,WindSpeedMaxMPH,WindSpeedAvgMPH,GustSpeedMaxMPH,PrecipitationSumIn
2013-1-1,45,41,37,34,31,27,77,66,55,29.98,29.86,1,0,1,0.00
2013-1-2,40,35,27,31,21,14,71,59,35,30.20,29.95,2,0,5,0.00
2013-1-3,38,30,25,23,20,17,81,66,42,30.22,30.11,1,0,6,0.00
2013-1-4,44,36,26,27,22,19,81,58,38,30.17,30.05,5,1,13,0.00
2013-1-5,45,36,28,31,25,18,81,64,48,30.34,30.10,1,0,7,0.00
2013-1-6,52,42,30,35,32,28,91,68,44,30.16,29.99,1,0,4,0.00
2013-1-7,50,41,29,33,29,24,87,62,39,30.40,30.09,3,0,8,0.00
2013-1-8,54,40,27,40,33,24,91,76,41,30.39,30.32,1,0,6,0.00
2013-1-9,53,42,31,44,37,29,96,84,40,30.34,30.18,3,0,5,0.00
2013-1-10,54,46,38,35,32,27,75,59,35,30.55,30.32,2,0,6,0.00
2013-1-11,43,40,34,42,37,31,96,88,76,30.46,30.06,0,0,0,0.02
2013-1-12,54,46,41,48,43,39,97,92,81,30.13,30.06,1,0,2,0.00
2013-1-13,49,45,40,48,44,39,98,97,93,30.10,29.94,1,0,2,0.01
2013-1-14,61,54,42,60,49,38,100,86,67,30.25,29.91,1,0,5,0.11
2013-1-15,42,39,37,40,35,-100,95,90,85,30.31,30.13,1,-21,2,0.00
2013-1-16,42,39,36,41,38,35,96,95,94,30.11,29.82,0,0,1,0.59
2013-1-17,45,42,39,41,37,32,97,84,68,30.09,29.94,0,0,0,0.02
2013-1-18,40,35,28,33,22,8,80,60,31,30.47,30.00,2,0,13,0.00
2013-1-19,54,43,33,36,27,20,75,55,35,30.40,29.95,2,1,10,0.00
2013-1-20,60,48,34,37,25,11,66,44,20,30.05,29.78,6,1,10,0.00
2013-1-21,44,37,32,35,23,16,74,57,41,30.08,29.76,2,0,10,0.00
2013-1-22,32,23,19,17,1,-8,54,38,24,30.25,29.87,6,1,16,0.00
2013-1-23,27,21,13,6,3,-3,71,47,27,30.31,30.13,0,0,7,0.00
2013-1-24,27,22,18,17,11,2,87,64,42,30.47,30.06,1,0,6,0.00
2013-1-25,25,21,17,19,10,2,88,63,38,30.47,30.04,1,0,4,0.00
2013-1-26,35,27,21,23,20,16,87,73,52,30.39,30.05,1,0,2,0.02
2013-1-27,39,28,20,25,21,16,89,76,48,30.57,30.39,2,0,5,0.00
2013-1-28,42,36,29,38,33,25,95,88,75,30.48,30.00,0,0,0,0.04
2013-1-29,61,46,34,52,42,33,96,87,71,30.09,29.97,2,0,6,0.00
2013-1-30,68,54,45,62,51,43,97,91,80,29.96,29.27,6,0,14,0.44
2013-1-31,59,45,29,59,28,13,98,55,29,29.89,29.12,9,3,26,0.63
2013-2-1,34,28,21,29,14,3,92,58,36,30.34,29.78,5,0,12,0.06
2013-2-2,33,26,17,27,14,4,88,62,40,30.34,29.99,2,0,9,0.01
2013-2-3,37,30,24,28,25,22,94,84,62,29.97,29.80,4,0,6,0.02
2013-2-4,36,31,23,30,19,13,79,60,40,30.08,29.86,5,0,12,0.00
2013-2-5,41,35,31,32,29,26,89,79,62,29.90,29.82,1,0,2,0.00
2013-2-6,48,37,28,34,29,22,92,73,42,30.32,29.89,3,0,5,0.00
2013-2-7,40,34,26,32,27,22,89,76,57,30.42,30.17,1,0,4,0.00
2013-2-8,42,38,34,41,35,26,100,88,66,30.17,29.67,1,0,7,0.44
2013-2-9,42,35,28,26,19,16,69,54,37,30.34,29.83,4,1,10,0.00
2013-2-10,40,33,22,34,20,7,87,61,26,30.45,30.24,2,0,7,0.00
2013-2-11,56,47,38,52,45,34,98,92,75,30.23,29.65,3,0,7,0.27
2013-2-12,58,48,37,37,32,25,80,56,29,29.95,29.80,4,0,9,0.00
2013-2-13,46,38,32,36,32,28,94,79,62,29.93,29.61,1,0,2,0.22
2013-2-14,52,40,33,35,32,28,95,75,40,29.99,29.72,3,0,6,0.00
2013-2-15,54,44,33,42,36,31,92,76,60,30.00,29.85,2,0,6,0.06
2013-2-16,38,36,34,36,32,23,95,86,64,29.99,29.76,0,0,6,0.21
2013-2-17,34,30,26,22,14,7,70,53,34,30.14,29.76,6,1,15,0.00
2013-2-18,40,31,21,32,16,6,84,55,28,30.34,30.14,2,0,15,0.00
2013-2-19,44,39,36,35,29,26,78,67,53,30.14,29.92,2,0,7,0.02
2013-2-20,39,34,26,24,16,13,60,50,35,30.11,29.83,4,1,21,0.00
2013-2-21,41,32,25,22,16,10,65,53,34,30.28,30.08,4,0,15,0.00
2013-2-22,35,33,30,32,26,21,93,77,62,30.35,30.14,1,0,8,0.11
2013-2-23,45,40,34,44,39,33,97,96,94,30.14,29.76,0,0,4,0.11
2013-2-24,52,44,34,43,35,23,100,74,45,30.06,29.74,0,0,0,0.01
2013-2-25,46,36,29,32,26,20,87,66,53,30.18,30.06,1,0,8,0.00
2013-2-26,47,38,28,46,35,25,96,89,78,30.19,29.56,5,1,18,0.79
2013-2-27,57,49,42,47,41,34,97,78,51,29.65,29.45,6,1,9,0.01
2013-2-28,50,44,40,39,32,26,88,64,42,29.68,29.58,5,1,11,0.02
2013-3-1,50,42,39,34,31,27,76,64,48,29.82,29.66,2,0,10,0.00
2013-3-2,40,36,31,28,24,21,75,62,48,29.83,29.76,3,0,10,0.00
2013-3-3,42,34,29,24,21,17,75,58,42,29.85,29.74,5,1,13,0.00
2013-3-4,44,36,29,24,18,14,66,50,33,29.98,29.85,5,1,13,0.00
2013-3-5,50,37,26,33,25,18,79,63,31,30.04,29.80,3,0,8,0.00
2013-3-6,41,38,34,37,35,29,94,89,65,29.90,29.54,4,1,12,1.58
2013-3-7,53,43,36,33,30,24,75,59,36,30.09,29.90,4,0,9,0.00
2013-3-8,50,43,34,31,28,22,75,56,37,30.20,30.05,4,1,10,0.00
2013-3-9,62,46,34,32,26,21,72,49,22,30.28,30.19,3,0,5,0.00
2013-3-10,58,45,32,42,32,24,93,66,27,30.31,30.20,2,0,7,0.00
2013-3-11,56,48,42,48,44,40,96,86,73,30.22,29.95,3,1,10,0.00
2013-3-12,62,52,43,55,45,31,97,81,52,29.94,29.67,5,1,12,0.74
2013-3-13,51,42,32,35,29,17,88,62,28,30.00,29.84,5,0,12,0.00
2013-3-14,36,35,34,21,19,16,57,52,45,30.02,30.00,6,1,13,0.00
2013-3-15,57,43,29,34,26,17,76,54,25,30.04,29.74,5,0,14,0.00
2013-3-16,57,46,38,44,37,31,82,72,50,29.88,29.62,3,0,7,0.00
2013-3-17,43,39,36,35,31,24,92,73,54,30.23,29.87,2,0,7,0.00
2013-3-18,40,38,34,38,32,22,95,78,52,30.29,29.82,2,0,6,0.32
2013-3-19,56,45,38,44,33,8,96,71,17,29.85,29.67,6,1,13,0.01
2013-3-20,54,45,36,34,19,9,75,39,17,29.95,29.73,5,1,14,0.00
2013-3-21,44,36,30,31,18,6,72,49,28,29.85,29.69,6,1,13,0.00
2013-3-22,49,38,29,24,18,8,58,45,27,29.95,29.83,6,1,13,0.00
2013-3-23,55,41,28,28,22,20,77,51,26,29.98,29.86,5,1,14,0.00
2013-3-24,44,37,30,34,26,22,93,67,46,29.96,29.64,1,0,4,0.05
2013-3-25,37,35,33,36,33,31,95,93,89,29.64,29.46,1,0,4,0.76
2013-3-26,49,42,33,38,32,26,95,71,41,29.91,29.64,3,0,8,0.09
2013-3-27,51,44,39,34,29,22,72,56,38,30.05,29.91,8,1,14,0.01
2013-3-28,52,44,37,34,30,23,75,57,34,30.16,30.03,5,1,11,0.00
2013-3-29,57,48,40,35,30,24,67,51,28,30.20,30.09,3,0,8,0.00
2013-3-30,60,38,38,37,-4,-100,79,36,30,30.18,30.07,4,-263,6,0.00
2013-3-31,53,37,40,50,9,-100,95,64,66,30.09,29.70,4,-244,12,0.03
2013-4-1,67,41,40,50,3,-100,97,40,33,29.92,29.66,6,-234,14,0.00
2013-4-2,52,35,33,21,-10,-100,58,25,18,30.12,29.93,7,-207,19,0.00
2013-4-3,54,36,31,19,-6,-100,56,26,19,30.33,30.13,6,-178,13,0.00
2013-4-4,48,35,26,35,6,-100,86,43,27,30.38,30.07,3,-140,8,0.05
2013-4-5,67,43,38,43,3,-100,95,38,21,30.06,29.76,4,-212,10,0.08
2013-4-6,54,40,39,36,3,-100,68,33,24,30.29,29.98,4,-172,11,0.00
2013-4-7,60,43,41,45,17,-100,85,56,56,30.26,29.96,5,-175,10,0.00
2013-4-8,74,53,48,53,22,-100,86,47,38,30.03,29.92,3,-173,7,0.00
2013-4-9,86,62,57,54,32,-100,80,45,28,30.02,29.89,3,-126,9,0.00
2013-4-10,91,65,57,58,32,-100,80,43,26,29.91,29.74,5,-138,8,0.00
2013-4-11,77,51,67,57,12,-100,70,42,48,29.83,29.77,1,-285,5,0.00
2013-4-12,64,42,53,63,13,-100,97,68,89,29.77,29.55,1,0,5,0.63
2013-4-13,64,46,45,52,15,-100,96,50,40,29.90,29.68,5,-203,9,0.00
2013-4-14,68,45,44,48,8,-100,95,43,27,30.09,29.90,4,-236,11,0.00
2013-4-15,63,42,54,51,8,-100,77,51,61,30.26,30.08,4,-272,6,0.00
2013-4-16,70,46,50,57,14,-100,92,55,62,30.28,30.09,5,-256,12,0.00
2013-4-17,77,51,57,64,21,-100,94,56,57,30.20,30.07,4,-228,11,0.00
2013-4-18,73,45,58,63,10,-100,95,55,62,30.20,30.02,4,-304,11,0.06
2013-4-19,72,51,61,64,23,-100,93,62,72,29.91,29.57,4,2,10,0.01
2013-4-20,64,47,48,37,11,-100,63,34,25,30.28,29.83,5,1,14,0.00
2013-4-21,56,40,42,36,4,-100,67,37,33,30.56,30.28,3,-194,8,0.00
2013-4-22,56,40,43,41,7,-100,76,47,52,30.55,30.37,4,-228,8,0.00
2013-4-23,63,40,46,47,5,-100,88,49,52,30.37,30.10,4,-265,9,0.00
2013-4-24,67,47,48,57,17,-100,92,57,62,30.10,29.77,3,-233,14,0.00
2013-4-25,66,44,46,55,6,-100,81,38,28,30.25,29.87,4,-235,11,0.00
2013-4-26,69,45,43,47,7,-100,88,39,27,30.40,30.25,5,-232,8,0.00
2013-4-27,70,47,42,50,7,-100,92,37,26,30.39,30.25,4,-228,8,0.00
2013-4-28,67,47,45,50,10,-100,89,39,28,30.26,30.12,3,-221,9,0.00
2013-4-29,59,40,55,57,10,-100,96,65,60,30.14,30.03,2,-291,9,0.18
2013-4-30,59,41,54,57,9,-100,96,62,71,30.24,30.05,2,-291,7,0.04
2013-5-1,72,49,49,50,15,-100,88,46,30,30.39,30.25,4,-207,8,0.04
2013-5-2,70,44,51,52,8,-100,88,47,45,30.41,30.28,2,-268,8,0.00
2013-5-3,67,50,49,50,24,-100,89,54,46,30.35,30.27,4,-137,10,0.00
2013-5-4,69,49,50,51,20,-100,83,51,44,30.31,30.16,4,-171,8,0.00
2013-5-5,64,45,48,48,18,-100,80,55,53,30.22,30.12,3,-180,8,0.00
2013-5-6,63,46,51,58,22,-100,92,69,79,30.15,30.03,2,-201,7,0.00
2013-5-7,63,46,58,62,22,-100,96,73,92,30.05,29.91,3,-235,7,0.94
2013-5-8,69,48,57,60,22,-100,96,66,68,29.97,29.91,4,-222,8,0.01
2013-5-9,74,52,55,61,25,-100,96,61,55,29.95,29.88,3,-206,7,0.01
2013-5-10,80,57,56,64,25,-100,96,52,45,29.97,29.83,4,-215,6,0.09
2013-5-11,79,50,64,66,16,-100,95,55,56,29.89,29.66,2,-291,8,0.08
2013-5-12,67,49,51,62,12,-100,95,40,26,29.99,29.70,3,-200,12,0.05
2013-5-13,63,49,44,36,21,-100,74,42,23,30.11,29.99,4,-69,8,0.02
2013-5-14,65,49,39,48,21,-100,79,46,27,30.17,30.02,2,-104,7,0.00
2013-5-15,78,61,58,63,42,-100,86,61,55,30.03,29.65,3,-82,5,0.00
2013-5-16,77,75,70,62,61,60,70,62,57,29.70,29.69,1,0,3,0.00
2013-5-20,79,54,66,69,25,-100,95,62,69,30.08,29.94,1,0,8,0.00
2013-5-21,80,54,68,70,23,-100,94,59,69,29.97,29.84,1,0,8,0.00
2013-5-22,84,58,67,72,28,-100,95,59,66,29.89,29.80,1,0,8,0.00
2013-5-23,81,54,69,70,22,-100,92,59,63,29.86,29.72,2,0,8,0.00
2013-5-24,67,42,51,63,8,-100,90,50,52,30.08,29.68,2,1,13,0.02
2013-5-25,51,19,45,36,-48,-100,65,22,53,30.09,30.06,2,0,9,0.00
2013-5-26,75,66,53,44,38,34,71,38,23,30.16,30.07,2,1,8,0.00
2013-5-27,77,63,50,51,46,39,84,56,30,30.24,30.14,3,0,4,0.00
2013-5-28,78,54,59,67,26,-100,92,59,67,30.16,30.03,5,-223,8,0.10
2013-5-29,86,66,67,72,43,-100,92,62,56,30.08,30.03,3,-138,6,0.00
2013-5-30,88,67,69,72,41,-100,89,56,55,30.14,30.06,2,-160,9,0.00
2013-5-31,89,72,66,73,53,-100,94,65,53,30.11,29.99,1,-90,5,0.00
2013-6-1,91,74,66,73,56,-100,92,65,47,30.00,29.88,2,-69,6,0.00
2013-6-2,86,68,74,71,41,-100,79,54,55,29.89,29.79,3,-162,8,0.00
2013-6-3,78,56,67,72,31,-100,96,70,73,29.88,29.77,1,-111,6,0.15
2013-6-4,76,59,58,65,33,-100,96,55,36,30.07,29.89,3,-132,7,0.08
2013-6-5,78,61,55,62,36,-100,94,55,40,30.14,30.02,3,-125,6,0.06
2013-6-6,77,54,66,65,23,-100,91,54,61,30.06,29.85,2,-236,7,0.02
2013-6-7,71,45,68,70,8,-100,96,61,92,29.82,29.51,1,-107,6,0.05
2013-6-8,77,47,65,67,8,-100,96,54,68,30.04,29.62,1,-335,6,0.05
2013-6-9,81,52,65,69,14,-100,96,50,63,30.16,30.04,4,-305,8,0.04
2013-6-10,77,48,70,75,12,-100,96,60,88,30.07,29.77,3,-337,7,0.04
2013-6-11,84,57,68,70,22,-100,96,50,52,29.80,29.71,3,-254,12,0.05
2013-6-12,72,29,72,64,-34,-100,77,30,73,29.80,29.79,0,-599,6,0.00
2013-6-13,88,55,70,73,22,-100,91,55,48,29.75,29.40,4,1,15,0.04
2013-6-14,80,51,60,61,13,-100,91,45,41,29.91,29.52,2,-7,13,0.03
2013-6-15,85,56,62,62,16,-100,85,41,35,30.02,29.91,2,-264,7,0.03
2013-6-16,86,55,66,70,18,-100,92,49,50,29.97,29.82,3,-291,9,0.03
2013-6-17,86,55,70,73,18,-100,90,51,54,29.91,29.83,2,-305,5,0.03
2013-6-18,77,48,64,72,14,-100,96,62,83,29.88,29.75,1,-324,4,0.02
2013-6-19,77,52,64,65,17,-100,97,51,49,30.11,29.83,1,-272,6,0.03
2013-6-20,81,54,62,64,16,-100,94,42,45,30.23,30.11,1,-270,7,0.03
2013-6-21,80,56,58,67,20,-100,89,47,40,30.26,30.19,3,-250,8,0.03
2013-6-22,84,57,64,68,22,-100,95,49,52,30.22,30.11,2,-263,9,0.03
2013-6-23,80,60,70,74,36,-100,93,69,77,30.15,30.03,2,-202,6,0.02
2013-6-24,92,61,71,78,30,-100,95,58,58,30.08,29.96,3,-244,5,0.02
2013-6-25,92,62,70,74,24,-100,94,45,45,30.00,29.84,1,-272,8,0.02
2013-6-26,92,62,69,77,31,-100,93,56,52,29.92,29.75,1,-236,5,0.02
2013-6-27,85,56,70,75,24,-100,95,58,67,29.78,29.57,3,-280,8,0.02
2013-6-28,87,51,70,74,13,-100,96,53,58,29.60,29.45,2,-340,8,0.02
2013-6-29,77,25,68,73,-42,-100,97,32,87,29.57,29.48,1,-660,4,0.00
2013-6-30,83,54,73,76,20,-100,94,58,73,29.80,29.66,3,-35,5,0.02
2013-7-1,82,53,74,75,18,-100,92,57,76,29.95,29.80,1,-321,7,0.01
2013-7-2,83,50,73,75,13,-100,94,57,74,30.14,29.95,2,-347,12,0.01
2013-7-3,85,50,73,78,9,-100,95,52,76,30.19,30.13,1,-376,2,0.02
2013-7-4,87,54,75,76,14,-100,93,50,65,30.22,30.14,1,-342,7,0.02
2013-7-5,90,57,75,75,15,-100,90,44,53,30.19,30.08,2,-335,10,0.02
2013-7-6,93,56,76,76,12,-100,88,42,52,30.14,30.03,2,-354,6,0.02
2013-7-7,92,48,74,75,-2,-100,86,38,55,30.07,29.95,2,-435,7,0.02
2013-7-8,88,52,72,72,10,-100,93,46,50,30.06,29.99,2,-346,8,0.01
2013-7-9,87,59,74,76,24,-100,89,56,64,30.06,29.96,1,-276,5,0.00
2013-7-10,90,53,74,78,13,-100,93,51,61,29.97,29.82,3,-346,12,0.00
2013-7-11,83,47,74,74,3,-100,95,48,66,29.88,29.80,2,-388,8,0.00
2013-7-12,72,33,69,71,-20,-100,97,45,96,29.96,29.82,1,-262,6,0.00
2013-7-13,86,54,68,75,17,-100,97,53,66,30.23,29.96,2,-326,8,0.00
2013-7-14,90,56,76,78,15,-100,95,47,58,30.29,30.23,1,-333,5,0.00
2013-7-15,95,60,72,79,23,-100,94,50,49,30.26,30.13,1,-297,4,0.01
2013-7-16,97,66,77,76,30,-100,87,47,44,30.18,30.11,1,-250,6,0.01
2013-7-17,98,79,75,76,58,-100,89,62,39,30.15,30.05,1,-83,6,0.02
2013-7-18,95,86,76,80,76,72,89,74,56,30.06,29.94,3,0,5,0.01
2013-7-19,96,87,79,78,76,74,85,70,53,29.96,29.82,1,0,6,0.01
2013-7-20,94,85,79,77,75,73,85,73,52,29.85,29.74,2,1,7,0.01
2013-7-21,93,81,74,75,72,70,90,75,48,29.89,29.83,2,0,6,0.01
2013-7-22,89,81,73,76,73,70,93,79,61,29.88,29.72,2,0,4,0.01
2013-7-23,87,79,74,75,72,68,96,80,57,29.72,29.59,3,0,9,0.01
2013-7-24,84,78,71,70,68,59,90,72,58,29.86,29.63,0,0,6,0.01
2013-7-25,80,72,65,65,60,54,78,67,55,29.98,29.86,1,0,7,0.00
2013-7-26,84,75,67,65,63,60,84,67,49,30.04,29.97,4,0,6,0.01
2013-7-27,85,76,67,71,68,64,93,76,62,30.02,29.89,1,0,5,0.00
2013-7-28,86,78,73,74,70,65,85,75,64,29.92,29.83,1,0,6,0.00
2013-7-29,87,75,66,69,59,53,88,62,32,30.11,29.92,2,0,7,0.01
2013-7-30,86,73,62,65,60,55,86,66,35,30.18,30.09,1,0,2,0.00
2013-7-31,86,75,66,69,66,62,90,74,55,30.11,29.98,2,0,5,0.00
2013-8-1,83,74,69,74,70,66,95,90,73,29.98,29.76,2,0,5,0.02
2013-8-2,87,76,68,71,68,65,95,79,50,29.91,29.80,1,0,5,0.03
2013-8-3,79,72,68,70,66,64,91,82,67,29.93,29.86,0,0,6,0.00
2013-8-4,85,73,63,66,60,52,92,66,38,29.97,29.85,1,0,8,0.00
2013-8-5,82,71,60,62,58,52,87,66,39,30.06,29.97,3,0,10,0.10
2013-8-6,75,71,66,67,65,61,89,82,73,30.05,29.97,1,0,7,0.01
2013-8-7,82,76,71,72,70,67,90,83,71,30.04,29.96,2,0,5,0.00
2013-8-8,88,80,74,76,73,70,88,79,63,30.00,29.94,1,0,5,0.00
2013-8-9,93,82,76,77,74,73,93,79,53,29.94,29.80,3,0,11,0.01
2013-8-10,84,77,70,74,68,63,92,76,54,30.03,29.89,2,0,6,0.00
2013-8-11,83,75,70,71,68,65,92,80,60,30.07,29.97,2,0,2,0.00
2013-8-12,90,79,71,74,71,68,95,78,56,29.99,29.88,4,0,8,0.00
2013-8-13,88,79,71,74,71,67,93,77,55,29.87,29.70,2,0,10,0.00
2013-8-14,71,69,65,70,66,62,94,93,89,29.79,29.74,0,0,1,0.00
2013-8-15,78,68,58,58,54,48,88,65,37,30.14,30.05,2,0,7,0.00
2013-8-16,83,69,56,61,56,49,93,68,31,30.16,30.09,1,0,5,0.00
2013-8-17,84,72,60,66,60,56,95,70,41,30.23,30.15,2,0,8,0.00
2013-8-18,75,69,64,66,63,60,93,81,65,30.18,30.11,1,0,5,0.00
2013-8-19,76,69,63,67,64,60,95,84,69,30.14,30.03,1,0,6,0.00
2013-8-20,86,75,64,72,68,62,96,80,54,30.12,30.04,2,0,5,0.00
2013-8-21,90,78,68,75,71,67,96,81,57,30.16,30.03,1,0,5,0.00
2013-8-22,89,79,71,74,70,66,95,74,47,30.05,29.88,1,0,5,0.00
2013-8-23,79,73,65,71,65,57,88,76,59,30.06,29.88,0,0,6,0.00
2013-8-24,85,73,62,67,61,56,92,68,43,30.29,30.06,1,0,5,0.00
2013-8-25,83,72,62,65,58,43,94,66,27,30.37,30.23,3,0,6,0.00
2013-8-26,88,75,62,67,61,56,84,65,40,30.26,29.96,2,0,5,0.00
2013-8-27,94,79,72,72,68,64,88,71,45,29.96,29.83,2,0,8,0.00
2013-8-28,85,76,72,74,71,69,94,85,66,29.86,29.78,1,0,5,0.01
2013-8-29,86,76,72,72,70,65,95,81,55,29.98,29.79,1,0,6,0.04
2013-8-30,86,76,67,72,68,64,92,78,59,30.00,29.86,1,0,7,0.00
2013-8-31,91,80,72,76,71,68,90,75,54,29.88,29.76,2,0,7,0.00
2013-9-1,90,80,70,75,72,67,93,76,55,29.81,29.72,1,0,7,0.00
2013-9-2,90,80,72,76,72,70,95,79,52,29.76,29.67,2,0,4,0.06
2013-9-3,89,79,70,71,64,56,88,62,37,29.91,29.68,1,0,10,0.00
2013-9-4,85,72,60,63,58,55,85,64,36,30.03,29.91,2,0,5,0.00
2013-9-5,88,75,64,62,58,50,88,59,35,30.08,29.95,2,0,9,0.00
2013-9-6,80,69,60,55,51,45,82,54,30,30.21,30.08,4,0,8,0.00
2013-9-7,82,69,56,63,58,54,95,72,43,30.10,29.89,2,0,6,0.00
2013-9-8,90,76,66,68,63,55,89,66,38,30.00,29.82,1,0,7,0.00
2013-9-9,79,72,63,69,58,50,83,62,45,30.16,30.00,1,0,5,0.00
2013-9-10,90,79,70,75,71,67,91,78,59,30.14,30.05,1,0,5,0.00
2013-9-11,76,75,74,73,72,71,92,91,89,30.10,30.06,0,0,0,0.00
2013-9-12,90,77,70,74,70,66,96,80,54,29.96,29.69,2,0,9,0.71
2013-9-13,81,71,64,69,60,51,96,72,37,29.86,29.65,2,0,7,0.00
2013-9-14,75,63,54,53,49,46,86,62,37,30.12,29.86,1,0,7,0.00
2013-9-15,76,64,52,59,54,48,96,72,38,30.20,30.05,1,0,5,0.00
2013-9-16,75,66,59,60,58,55,89,74,53,30.18,29.99,0,0,1,0.00
2013-9-17,70,61,53,56,47,38,90,63,36,30.38,30.18,0,0,0,0.00
2013-9-18,73,60,49,54,48,38,94,68,32,30.31,30.16,2,0,7,0.00
2013-9-19,78,63,51,59,54,49,95,74,47,30.16,30.05,1,0,7,0.00
2013-9-20,82,67,54,63,58,52,96,75,48,30.06,29.93,0,0,0,0.00
2013-9-21,80,69,60,67,62,57,95,80,57,29.95,29.65,1,0,1,0.47
2013-9-22,78,66,56,63,56,51,96,74,43,29.89,29.67,1,0,5,0.14
2013-9-23,71,60,51,50,46,41,89,64,37,30.05,29.89,1,0,6,0.00
2013-9-24,74,59,47,54,48,45,92,71,36,30.07,29.90,1,0,4,0.00
2013-9-25,77,60,50,57,52,48,94,75,43,29.94,29.84,3,0,7,0.00
2013-9-26,75,62,55,62,56,53,96,83,48,30.03,29.88,1,0,4,0.00
2013-9-27,72,64,58,60,56,54,95,77,55,30.20,30.03,3,0,7,0.00
2013-9-28,76,65,57,58,55,53,92,71,50,30.26,30.17,1,0,5,0.00
2013-9-29,76,63,54,61,55,52,95,76,49,30.17,30.02,1,0,5,0.00
2013-9-30,76,63,53,59,54,51,96,76,49,30.05,29.95,3,0,6,0.00
2013-10-1,85,66,55,63,58,53,93,77,43,30.03,29.93,3,0,6,0.00
2013-10-2,86,72,60,64,60,57,90,69,39,30.04,29.95,1,0,4,0.00
2013-10-3,81,72,61,67,63,58,93,75,55,30.07,30.00,2,0,4,0.00
2013-10-4,89,72,61,69,64,60,96,77,46,30.04,29.96,2,0,5,0.00
2013-10-5,87,75,67,69,66,64,93,76,52,30.05,29.96,4,0,5,0.00
2013-10-6,86,75,66,70,67,64,95,79,57,29.99,29.90,2,0,7,0.00
2013-10-7,78,68,55,70,65,53,95,89,71,30.00,29.77,4,0,11,0.37
2013-10-8,65,57,50,53,50,47,94,78,54,30.23,30.00,2,0,8,0.05
2013-10-9,62,61,60,49,48,47,66,62,59,30.23,30.20,1,0,5,0.00
2013-10-10,59,51,56,58,37,-100,96,83,84,30.15,29.92,2,0,11,0.48
2013-10-11,64,48,59,62,25,-100,96,74,94,29.94,29.86,1,0,11,0.61
2013-10-12,64,38,60,62,-2,-100,97,56,83,30.11,29.93,1,0,9,0.18
2013-10-13,65,35,60,59,-12,-100,91,46,75,30.29,30.11,1,0,7,0.05
2013-10-14,-200,0,200,-100,-100,-100,0,0,100,30.27,30.26,0,0,0,0.05
2013-10-15,74,44,52,60,4,-100,96,48,47,30.20,30.05,1,0,7,0.07
2013-10-16,66,64,62,62,61,60,93,91,88,29.92,29.89,0,0,0,0.07
2013-10-17,75,44,61,65,8,-100,96,57,67,29.88,29.69,4,-338,6,0.08
2013-10-18,69,33,51,48,-22,-100,86,30,38,29.97,29.75,1,-464,6,0.05
2013-10-19,65,30,51,58,-24,-100,96,39,59,29.97,29.76,1,-506,4,0.04
2013-10-20,65,37,44,42,-8,-100,88,38,32,30.06,29.81,1,-333,6,0.05
2013-10-21,70,50,42,50,31,-100,96,63,40,30.12,29.94,2,-97,5,0.06
2013-10-22,66,48,48,54,24,-100,94,61,56,29.94,29.78,0,-166,5,0.05
2013-10-23,59,44,44,47,22,-100,93,61,48,29.85,29.61,0,-132,4,0.05
2013-10-24,55,35,37,38,1,-100,82,45,38,30.10,29.85,1,-234,8,0.02
2013-10-25,57,45,38,36,32,31,77,62,41,30.29,30.09,2,0,7,0.03
2013-10-26,58,46,34,34,30,28,85,57,33,30.27,29.91,3,0,7,0.02
2013-10-27,52,15,40,35,-57,-100,82,21,46,30.11,29.91,0,-680,3,0.01
2013-10-28,62,36,41,49,-1,-100,93,51,55,30.25,30.11,3,-318,5,0.02
2013-10-29,61,48,42,50,38,-100,96,78,57,30.34,30.24,3,-48,6,0.02
2013-10-30,63,48,51,57,30,-100,96,75,76,30.30,30.12,1,-153,2,0.02
2013-10-31,67,48,53,60,23,-100,96,67,75,30.17,29.78,1,-223,5,0.01
2013-11-1,72,48,57,63,18,-100,94,61,67,29.78,29.57,3,-258,7,0.01
2013-11-2,71,47,50,59,19,-100,96,56,42,29.84,29.59,1,-203,4,0.03
2013-11-3,58,41,41,41,10,-100,79,46,31,30.42,29.84,1,-160,8,0.01
2013-11-4,51,41,34,33,27,22,82,59,34,30.60,30.42,1,0,7,0.02
2013-11-5,59,50,38,48,43,32,90,77,62,30.57,30.43,2,0,5,0.01
2013-11-6,65,58,49,54,50,46,93,77,58,30.44,30.04,2,0,7,0.01
2013-11-7,64,56,46,58,48,25,94,75,42,30.04,29.82,3,1,14,0.01
2013-11-8,52,40,34,30,15,-100,77,47,31,30.28,30.03,3,-75,9,0.01
2013-11-9,55,44,31,32,28,25,86,57,33,30.32,30.00,2,0,7,0.00
2013-11-10,64,52,42,35,29,26,59,43,26,30.17,29.90,4,1,11,0.00
2013-11-11,56,48,35,41,31,27,76,53,37,30.28,29.97,2,0,6,0.00
2013-11-12,53,42,31,38,24,13,67,50,36,30.35,29.94,1,0,12,0.00
2013-11-13,31,30,29,18,16,14,63,56,51,30.36,30.34,0,0,4,0.00
2013-11-14,53,38,25,34,25,19,79,60,28,30.36,30.20,1,0,6,0.00
2013-11-15,55,43,31,42,32,24,87,66,38,30.25,30.16,2,0,7,0.00
2013-11-16,52,49,45,50,47,42,95,92,84,30.29,30.20,1,0,3,0.20
2013-11-17,62,54,50,57,48,-100,96,88,77,30.22,29.74,1,-34,4,0.00
2013-11-18,70,52,50,63,17,-100,96,41,19,29.88,29.65,6,-130,15,0.03
2013-11-19,52,46,38,29,26,24,64,47,37,30.32,29.88,2,0,11,0.00
2013-11-20,47,40,35,32,27,23,81,60,47,30.53,30.32,2,0,7,0.00
2013-11-21,50,42,31,42,36,28,92,80,65,30.53,30.36,1,0,5,0.00
2013-11-22,62,53,45,52,48,41,92,82,64,30.36,29.96,2,0,8,0.00
2013-11-23,57,47,33,51,27,10,82,48,27,30.14,29.96,4,1,9,0.00
2013-11-24,33,28,24,11,6,1,51,38,27,30.48,30.14,5,2,20,0.00
2013-11-25,37,29,19,16,10,6,67,46,30,30.54,30.32,1,0,7,0.00
2013-11-26,56,39,34,55,30,12,96,72,37,30.32,29.50,3,0,9,0.27
2013-11-27,58,36,31,57,25,-100,96,79,51,29.97,29.43,5,-74,16,1.38
2013-11-28,38,26,27,24,-5,-100,80,45,33,30.45,29.97,4,-165,14,0.06
2013-11-29,44,33,24,25,22,20,87,66,40,30.68,30.42,1,0,5,0.12
2013-11-30,39,33,28,26,23,19,84,68,53,30.68,30.34,1,0,4,0.02
2013-12-1,47,35,24,34,29,21,90,78,52,30.34,29.99,2,0,5,0.00
2013-12-2,47,42,38,39,36,34,90,81,68,29.99,29.84,1,0,1,0.00
2013-12-3,54,41,37,38,28,-100,91,71,50,29.96,29.83,3,-54,5,0.01
2013-12-4,52,43,38,48,32,-100,95,81,79,30.05,29.95,1,-68,7,0.00
2013-12-5,62,50,47,61,43,-100,96,87,81,30.04,29.90,3,-47,6,0.00
2013-12-6,65,46,39,61,36,-100,96,85,80,30.13,29.85,1,-83,6,0.43
2013-12-7,45,36,31,37,25,-100,94,73,55,30.49,30.08,2,-48,8,0.32
2013-12-8,32,18,29,30,-29,-100,92,46,62,30.55,30.25,1,-422,7,0.00
2013-12-9,36,16,33,35,-38,-100,95,44,93,30.25,30.00,1,-489,4,1.36
2013-12-10,37,15,33,35,-41,-100,96,40,61,30.19,29.94,2,-475,5,0.17
2013-12-11,40,16,27,27,-43,-100,88,29,47,30.38,30.19,1,-489,7,0.08
2013-12-12,-200,0,200,-100,-100,-100,0,0,100,30.25,30.20,0,-904,0,0.00
2013-12-13,43,20,29,22,-38,-100,72,24,30,30.26,30.17,2,0,9,0.02
2013-12-14,42,18,38,38,-40,-100,94,36,69,30.29,29.68,1,0,7,0.31
2013-12-15,48,25,29,38,-21,-100,95,39,49,29.91,29.59,6,1,19,0.00
2013-12-16,39,21,30,25,-25,-100,78,38,46,30.16,29.91,1,0,5,0.00
2013-12-17,38,22,33,33,-19,-100,89,50,68,30.14,29.90,0,0,5,0.01
2013-12-18,41,22,26,23,-25,-100,83,37,42,30.20,29.94,4,0,16,0.00
2013-12-19,54,33,26,39,-6,-100,91,41,34,30.18,30.03,2,-7,5,0.00
2013-12-20,60,40,48,50,0,-100,74,38,36,30.07,29.96,3,-228,7,0.00
2013-12-21,72,53,53,55,28,-100,90,56,53,29.99,29.86,4,-136,14,0.00
2013-12-22,71,52,54,62,36,-100,95,77,73,29.99,29.80,3,-111,9,0.26
2013-12-23,60,28,44,59,-21,-100,96,47,70,30.18,29.90,2,-444,8,0.36
2013-12-24,43,22,25,26,-25,-100,70,31,33,30.42,30.15,4,-124,15,0.01
2013-12-25,32,22,21,19,-9,-100,82,47,40,30.53,30.37,1,-198,14,0.00
2013-12-26,43,27,23,28,6,-100,88,60,43,30.37,30.18,2,-132,7,0.00
2013-12-27,48,34,24,32,24,20,83,69,33,30.39,30.28,1,0,6,0.00
2013-12-28,58,42,28,33,25,22,77,56,27,30.29,30.08,2,0,6,0.00
2013-12-29,49,41,40,48,27,-100,96,77,42,30.08,29.48,4,-93,8,0.76
2013-12-30,46,31,32,42,2,-100,95,56,58,30.16,29.77,3,-208,7,0.00
2013-12-31,46,27,27,29,-10,-100,70,41,37,30.30,30.06,6,-178,13,0.00
2014-1-1,43,26,25,31,-5,-100,82,51,54,30.39,30.23,2,-229,8,0.00
2014-1-2,38,29,30,35,11,-100,95,76,86,30.09,29.56,1,-35,7,0.02